Theta_e
318 318 322 321 322 323 323 329 328 330 332 325 323 321 318 323 325 322 322 321 321 324 324 321 322 321 319 320 318 318 321 325 326 325 324 329 328 325 328 324 329 327 325 331 332 336 338 341 343 342 343 343 343 343 343 342 343 343 342 342 341 341 341 341 341 339 339 337 336 336 337 337 336 336 336 336 336 336 336 335 336 337 337 338 339 339 338 339 338 335 332 330 329 328 328 327 327
322 321 324 322 322 321 325 332 332 334 334 319 319 323 318 321 322 323 328 325 324 324 323 322 321 322 321 320 318 319 320 322 322 322 327 329 325 325 325 324 329 328 327 332 334 335 337 340 342 343 342 343 343 343 343 342 343 342 342 341 341 341 340 340 340 339 338 336 335 335 335 336 335 335 335 335 335 335 335 334 334 336 337 337 338 339 339 339 338 337 335 334 332 331 330 328 327
323 322 322 322 322 323 333 333 329 334 330 318 320 330 322 318 323 327 331 329 328 323 323 321 320 322 321 322 319 319 322 321 319 328 337 328 323 324 322 323 327 330 329 333 336 334 335 338 340 342 342 342 342 343 343 342 342 342 342 341 340 341 340 340 339 339 338 336 334 333 334 334 334 334 334 335 335 334 334 333 333 335 336 337 338 339 339 338 337 336 334 333 332 333 331 329 329
322 323 322 322 324 330 344 337 338 339 325 320 320 326 327 322 328 330 329 328 328 324 322 322 321 320 319 323 319 318 321 320 317 328 338 325 322 323 321 323 325 330 331 334 338 335 335 336 339 341 342 342 341 343 343 342 342 342 341 341 340 340 341 339 339 339 337 337 335 333 333 334 334 335 335 335 335 333 332 332 331 334 336 337 338 339 338 337 336 334 333 331 330 332 333 332 331
322 324 320 320 326 329 338 331 335 335 322 325 318 319 335 333 331 328 326 323 326 324 322 323 322 318 317 321 320 319 321 320 316 321 327 322 323 322 320 323 324 330 332 335 337 336 335 335 338 340 341 341 341 342 342 342 342 342 341 340 340 340 340 338 338 338 337 337 337 336 335 335 335 336 337 337 337 334 331 330 330 333 335 337 338 338 337 336 335 333 332 330 329 328 330 332 332
322 323 319 318 319 319 330 324 321 329 329 331 320 323 338 333 327 325 323 321 323 323 321 321 320 318 320 321 319 319 320 318 317 321 324 322 325 322 320 322 324 329 332 335 336 336 334 334 337 339 341 341 340 341 341 342 341 341 340 340 339 339 339 337 338 338 337 336 337 338 336 335 335 336 338 337 337 336 332 330 330 333 335 337 337 337 336 335 334 332 330 329 328 324 326 329 326
321 321 324 325 320 322 335 326 323 332 326 323 321 324 329 327 324 320 321 321 321 320 319 320 319 318 319 319 317 316 318 318 318 321 323 323 325 321 320 323 326 329 331 335 335 335 334 334 336 338 341 340 340 340 341 341 340 340 340 340 338 338 338 337 338 338 336 336 336 337 336 335 335 337 338 338 337 336 335 331 332 334 336 337 337 336 335 334 332 330 329 328 327 323 320 319 314
321 322 328 336 334 335 338 327 331 333 319 318 321 320 324 326 323 320 321 320 319 320 321 322 320 319 318 317 320 318 317 321 319 320 324 323 322 320 321 322 325 329 332 334 335 336 334 334 335 337 339 340 340 340 340 340 340 340 339 339 338 338 338 336 337 337 335 336 337 336 335 335 336 337 337 338 337 336 336 332 333 335 336 336 336 335 334 332 331 329 329 328 325 321 313 307 304
319 320 326 333 334 338 336 325 324 326 323 322 318 320 323 323 320 319 321 320 319 321 322 322 319 319 319 318 323 320 317 322 321 321 324 322 320 319 321 321 323 327 332 335 336 336 335 335 334 336 338 339 340 340 340 340 340 339 339 338 338 338 337 335 335 336 335 335 336 335 335 336 336 337 336 338 337 336 335 334 334 335 335 336 335 334 334 332 330 329 328 327 323 321 312 303 300
321 321 326 334 334 332 327 322 322 323 325 324 320 321 321 319 319 320 321 319 318 320 319 318 318 319 319 319 323 320 318 322 321 323 324 323 322 320 321 322 323 326 330 334 336 336 336 335 334 335 337 338 339 339 339 339 340 339 339 337 338 338 335 335 334 334 335 335 335 335 336 335 336 337 336 337 337 336 335 335 334 334 334 334 334 333 333 332 330 329 328 326 324 322 312 301 299
330 329 334 339 334 326 319 321 330 331 329 325 323 324 321 319 319 320 320 317 316 318 317 316 319 321 319 320 325 319 318 322 321 322 324 323 321 321 322 323 325 327 329 332 335 336 336 336 335 335 336 337 338 338 339 339 339 338 339 337 337 337 333 334 335 334 335 336 335 336 336 335 336 336 337 337 337 336 335 335 334 333 333 333 333 332 332 332 330 328 328 327 326 320 308 299 299
329 334 347 345 328 322 322 325 331 337 336 327 320 320 319 318 318 318 318 316 316 318 318 318 318 319 319 322 324 316 316 322 320 320 322 321 321 321 322 323 325 328 330 331 333 335 336 336 335 335 336 336 337 338 339 338 338 338 338 337 336 336 332 332 335 334 334 336 335 336 336 335 336 337 337 337 337 336 335 334 334 333 333 333 331 331 331 330 329 328 327 328 325 313 302 299 299
335 334 341 331 323 325 322 324 331 335 333 324 319 318 316 316 318 316 317 318 317 317 318 319 317 316 319 319 322 321 318 320 320 318 318 319 321 321 322 324 326 328 330 332 333 334 336 336 335 334 335 336 337 337 338 338 337 338 338 337 336 335 333 332 333 334 333 334 335 335 335 335 336 337 337 337 337 336 335 334 333 333 332 331 329 329 330 328 327 327 327 327 324 310 299 299 298
334 336 335 319 321 328 321 321 328 325 320 321 322 319 317 316 316 317 317 318 319 318 315 316 316 316 318 315 326 332 320 318 320 318 317 318 320 321 322 325 328 329 330 331 332 334 335 336 335 334 334 336 337 337 337 338 337 337 337 336 336 336 334 333 333 333 332 332 334 335 335 336 337 337 337 337 337 336 334 333 333 332 331 329 327 327 328 327 326 326 326 325 323 310 299 298 298
324 340 342 324 325 326 319 320 325 322 316 319 319 317 319 316 315 317 317 316 319 318 312 313 314 315 317 314 323 326 315 317 320 318 319 319 320 321 322 325 329 330 330 331 333 334 335 335 336 335 334 335 336 337 338 337 338 336 336 336 336 336 335 334 334 332 331 331 333 334 334 335 337 338 338 337 337 336 334 334 333 332 330 328 327 326 326 327 326 325 325 324 322 310 299 298 298
327 340 336 323 322 320 318 321 324 323 319 321 320 316 318 317 315 316 315 314 316 315 313 315 313 314 317 316 317 316 314 317 319 320 320 320 320 321 324 326 328 329 329 330 332 334 334 335 336 336 335 335 335 336 337 338 337 337 336 336 336 336 336 335 335 333 332 331 332 334 334 334 336 337 338 337 337 336 335 334 333 332 330 329 327 325 325 326 325 324 324 323 321 310 300 298 298
331 337 332 322 318 319 321 323 324 320 320 326 324 318 317 318 318 315 312 313 317 317 316 317 314 313 316 317 314 313 314 317 318 321 321 320 322 322 324 327 330 330 329 329 330 333 334 334 335 336 337 336 335 335 336 337 337 337 337 336 336 336 336 336 335 333 332 332 332 333 333 334 335 336 337 337 337 336 335 334 333 332 331 329 328 325 324 325 324 324 324 322 320 310 300 298 298
335 335 326 320 322 326 327 327 325 318 318 322 320 318 316 318 320 317 314 316 322 319 316 315 313 313 313 314 312 312 313 316 319 321 322 323 324 325 325 326 329 329 328 329 330 331 333 334 334 335 337 337 337 336 336 337 337 337 337 337 337 337 337 337 336 334 334 334 333 333 333 333 334 335 337 336 336 336 336 335 333 332 331 330 328 326 324 324 323 323 323 321 319 310 300 297 298
339 333 319 326 335 331 327 326 323 318 318 320 320 318 316 317 317 315 315 320 322 319 317 315 314 314 313 312 312 312 313 315 319 320 322 323 324 326 325 324 327 328 329 331 331 331 332 332 333 334 336 338 338 337 337 337 337 337 337 337 337 337 337 337 336 336 336 336 335 335 333 333 333 335 336 336 337 336 335 335 333 332 331 330 328 326 324 323 323 323 323 321 316 308 300 297 298
331 328 321 336 339 329 327 325 321 319 317 318 320 317 316 318 316 315 315 318 320 318 317 316 315 316 314 312 311 311 313 315 319 321 322 322 322 323 323 323 325 327 328 328 329 331 333 332 332 333 335 337 338 338 338 337 337 337 337 337 337 337 337 337 337 337 337 337 337 336 335 333 333 335 336 336 336 336 335 335 333 332 331 329 328 326 324 322 322 323 323 320 312 303 299 297 298
320 323 328 335 326 321 325 323 321 321 317 317 318 317 317 317 316 316 315 317 319 317 316 316 315 315 314 312 309 309 310 312 315 316 316 316 316 316 317 318 318 320 321 321 323 327 331 333 333 333 334 335 336 337 338 338 337 337 337 337 338 337 337 337 337 338 338 338 337 336 335 334 332 334 335 335 335 336 335 335 333 331 330 329 327 326 325 322 321 322 321 319 312 302 298 297 297
319 324 330 330 321 318 322 324 321 318 317 316 317 317 316 316 316 316 316 317 318 317 316 316 314 313 313 311 308 306 305 306 306 307 308 308 308 308 309 311 312 314 315 317 318 320 324 328 331 333 334 334 335 335 336 337 337 336 337 337 338 338 338 337 337 338 338 338 337 336 335 334 332 333 335 336 336 335 335 334 333 331 330 328 327 326 325 323 320 320 319 318 314 305 299 297 297
320 325 326 327 321 318 321 322 320 316 315 317 317 316 315 316 317 317 317 317 318 317 315 315 312 308 307 306 305 306 306 304 304 304 305 305 305 305 306 307 308 310 312 314 315 318 319 321 325 329 332 333 333 334 335 336 336 336 336 336 337 338 339 339 338 337 338 338 337 336 334 333 332 333 336 338 336 335 335 334 333 331 330 329 328 327 325 324 321 320 319 318 316 308 301 298 297
319 324 324 324 320 319 323 322 321 318 315 316 316 313 314 316 316 316 316 316 315 313 311 309 306 304 305 305 305 306 306 304 304 305 304 304 304 304 305 306 308 309 311 312 313 315 317 319 320 322 326 329 332 333 334 335 335 335 335 335 335 336 338 339 339 337 338 338 337 335 333 333 333 334 335 337 337 336 335 334 332 331 330 329 328 327 326 324 322 321 319 318 317 313 305 299 297
320 324 322 320 318 321 323 320 320 318 315 314 313 314 314 315 315 314 315 315 313 312 310 307 304 305 305 305 305 304 303 303 303 304 304 303 304 305 306 307 309 310 311 312 313 313 314 317 318 319 321 324 328 331 333 333 333 334 334 334 333 333 335 337 338 338 338 338 337 335 333 333 333 334 334 335 336 335 335 334 332 331 330 329 328 327 326 325 323 322 320 319 318 316 310 302 298
321 323 320 317 317 318 318 317 318 316 315 313 312 315 314 312 313 314 318 315 313 313 309 307 309 308 305 304 303 302 302 302 302 302 302 302 303 305 305 306 309 309 311 314 315 315 314 315 316 318 320 321 325 328 330 331 331 333 333 333 333 332 332 333 335 337 337 337 336 333 332 333 333 333 333 333 334 334 335 334 332 331 330 328 328 327 326 325 324 322 321 319 318 317 314 306 299
318 319 317 315 315 315 315 317 316 313 314 313 313 316 313 311 312 318 321 313 311 313 307 305 309 307 303 303 302 301 301 301 301 301 301 301 302 303 303 305 307 308 311 315 317 317 316 316 317 319 321 322 324 326 328 329 330 330 332 333 333 332 331 330 331 333 334 334 333 332 332 333 333 334 334 334 333 334 334 333 332 331 330 329 328 327 326 325 324 323 322 320 318 317 316 311 302
314 315 315 316 316 315 315 316 315 312 313 314 314 315 314 310 312 320 319 310 311 312 307 306 307 305 303 302 301 300 300 300 300 300 300 300 300 301 301 302 304 307 310 314 318 319 318 317 320 322 323 324 325 326 328 329 329 330 331 332 332 333 332 331 330 330 331 331 331 330 330 331 333 334 334 334 334 334 334 333 332 331 330 329 328 327 326 325 324 323 322 320 319 318 318 316 309
314 314 314 318 319 317 315 315 314 313 314 315 314 315 317 315 315 321 316 310 311 309 306 306 305 304 303 301 300 300 299 299 299 299 299 299 300 300 300 301 303 306 309 313 318 320 321 320 321 324 325 326 327 328 329 330 330 331 331 332 332 333 332 332 332 332 332 331 331 331 330 331 331 331 331 331 332 333 333 332 332 331 330 329 329 327 326 325 324 323 322 320 319 318 318 318 314
313 312 313 317 319 321 317 311 313 313 314 316 313 316 324 324 321 318 312 310 312 310 306 305 305 303 302 301 300 300 299 299 298 298 299 298 299 299 300 301 302 305 309 313 318 320 322 323 323 325 326 327 328 328 329 330 331 331 331 332 332 332 333 333 333 333 333 332 333 332 332 331 331 331 330 331 331 332 332 332 331 330 330 329 328 327 326 325 324 324 322 320 319 318 318 318 317
314 311 316 319 317 327 324 312 314 315 313 314 312 318 325 325 322 314 308 311 314 312 307 304 305 303 302 301 300 300 299 298 298 298 298 298 298 299 299 301 302 305 308 312 315 317 321 323 324 325 326 327 328 328 329 330 330 330 331 331 331 331 332 332 332 333 333 333 333 332 332 332 332 332 331 331 331 332 332 331 331 330 329 328 327 326 325 325 324 323 322 320 319 318 318 318 318
323 313 323 327 317 326 328 313 315 316 312 311 312 320 320 320 322 312 307 312 315 313 307 304 304 302 301 301 299 299 298 298 298 297 298 298 298 298 299 300 302 304 306 310 313 316 319 321 323 324 325 326 327 328 328 329 330 330 330 330 329 330 329 330 330 331 331 331 331 331 331 331 331 331 331 331 330 331 331 330 330 329 329 328 327 326 325 324 323 323 321 320 318 317 317 317 317
330 318 323 332 320 321 323 316 317 316 312 311 311 319 318 319 323 314 308 310 316 316 308 303 303 302 300 300 298 298 298 297 297 297 297 297 297 298 299 300 301 303 305 308 311 314 317 318 321 322 323 324 325 326 327 327 328 328 328 328 328 327 327 328 328 328 328 328 329 329 330 330 330 330 330 330 330 330 330 330 330 329 328 327 326 325 324 324 323 322 321 319 318 317 317 317 316
330 321 318 326 322 319 321 319 318 315 314 313 311 315 316 318 320 315 308 309 316 316 307 303 302 301 300 299 298 298 297 297 296 296 296 296 297 298 299 300 301 303 305 307 309 311 313 314 317 319 320 322 322 323 324 325 325 325 325 325 325 325 325 325 325 325 325 325 325 325 326 326 327 327 327 328 328 328 328 328 329 328 328 327 325 324 324 323 322 321 320 319 318 317 316 316 316
331 325 320 323 321 318 320 319 319 317 317 316 315 316 317 318 317 313 308 308 314 310 303 303 301 300 300 298 298 298 297 297 296 295 295 296 297 297 298 300 301 303 304 306 308 309 311 312 313 316 317 318 320 321 322 322 323 323 323 322 322 322 321 321 321 321 321 322 322 321 322 322 322 323 322 323 323 324 324 325 325 325 325 325 324 324 323 323 322 321 320 318 317 317 316 316 316
328 326 325 327 323 320 319 318 319 316 315 317 317 316 318 318 315 312 308 307 308 305 302 302 301 300 299 298 298 297 297 296 295 295 295 295 295 296 298 299 300 302 303 304 306 308 308 309 311 312 313 314 316 318 319 320 319 319 319 319 317 315 315 316 315 315 315 315 316 317 318 318 318 319 319 319 319 319 319 319 320 320 320 320 321 321 321 322 322 321 319 318 317 317 316 316 314
319 319 321 322 321 320 317 317 319 314 314 320 319 317 319 319 315 310 308 309 308 304 303 301 300 300 299 298 298 297 297 296 295 294 294 294 295 295 296 298 300 301 302 303 303 304 305 306 308 308 309 312 313 314 315 315 315 314 313 313 311 310 311 311 310 309 309 310 311 311 312 312 313 314 314 315 315 316 316 316 316 316 316 316 316 317 317 318 318 318 317 317 316 316 315 314 312
314 316 317 318 319 317 315 315 316 313 314 320 318 316 321 320 315 309 307 311 308 304 303 301 300 300 299 299 298 297 297 295 294 294 293 294 294 294 294 295 297 298 298 300 300 301 302 304 305 305 307 309 309 310 311 311 310 310 309 308 307 307 307 307 306 305 305 306 307 307 307 307 308 309 309 310 311 312 312 313 313 313 313 313 314 314 314 314 314 314 313 313 313 312 312 311 309
315 316 316 318 319 318 319 318 315 313 315 322 320 317 320 319 312 307 305 306 304 301 302 301 300 299 299 298 298 297 297 296 294 293 293 293 293 293 293 293 294 294 295 297 298 300 301 302 302 304 305 305 306 306 307 307 307 307 307 306 305 305 303 303 303 303 303 303 303 304 304 304 304 305 305 306 307 307 308 309 309 309 310 310 311 311 311 312 312 311 310 309 308 307 308 307 307
319 319 318 321 319 318 324 323 317 315 315 319 319 316 320 317 309 306 303 302 302 300 300 300 299 299 298 298 297 296 296 296 295 294 292 292 292 292 292 292 292 293 294 295 296 297 298 300 301 302 303 304 305 305 305 305 305 305 305 304 304 304 303 303 303 302 302 302 302 302 302 302 302 302 302 303 303 304 304 305 305 306 306 307 308 308 308 308 308 309 309 309 307 305 305 305 305
323 322 319 321 320 319 322 321 320 321 317 316 315 318 326 322 315 310 304 302 302 300 300 300 299 299 298 297 296 296 296 295 295 294 292 291 291 291 291 292 292 292 292 293 294 295 296 298 299 301 302 303 303 304 304 304 304 304 304 304 303 303 302 302 302 300 300 300 300 300 300 301 301 301 301 301 301 301 301 302 302 303 303 304 304 305 305 305 305 305 305 306 306 305 305 304 304
325 325 320 320 321 320 321 320 319 323 324 318 313 323 336 330 322 313 305 304 303 301 301 300 299 299 298 298 297 296 296 295 294 293 292 291 291 291 291 291 291 291 291 291 292 293 294 295 297 298 299 300 301 301 302 303 303 302 302 301 299 298 297 296 296 296 297 298 298 298 299 299 300 300 300 300 300 300 300 300 300 300 301 301 301 301 302 303 303 303 302 302 302 303 303 302 302
324 324 321 319 318 318 321 321 320 325 326 316 311 319 331 332 328 316 306 306 304 302 302 300 300 299 298 298 297 297 296 295 294 292 291 290 290 290 290 290 291 291 291 291 292 293 293 294 295 296 297 297 298 298 299 300 299 299 298 297 295 294 292 292 293 294 295 296 297 297 297 297 298 298 299 299 299 299 299 299 299 299 299 299 299 299 300 300 300 301 301 300 300 300 300 300 300
326 322 321 322 318 320 323 320 320 323 322 319 319 317 318 325 326 313 306 308 305 302 302 300 300 299 298 298 298 297 296 295 294 293 291 290 290 290 289 290 290 290 290 291 292 292 293 293 294 295 295 295 296 296 297 297 296 296 295 294 292 291 290 290 291 292 293 294 294 294 294 294 295 295 296 296 297 297 298 298 298 299 299 299 299 299 299 299 298 299 299 299 300 299 299 298 298
325 318 319 322 320 324 326 321 321 319 315 323 327 318 315 323 322 310 306 311 309 305 303 301 300 299 298 298 297 297 296 294 293 292 291 290 290 290 289 290 290 290 290 290 291 291 292 292 293 294 293 293 294 294 295 294 294 294 293 292 290 289 289 289 290 290 290 291 290 290 290 290 290 290 291 291 292 293 294 296 297 297 298 298 298 298 298 298 298 298 298 298 298 298 298 298 297
318 314 317 320 320 323 325 323 323 318 316 324 326 318 317 324 325 314 308 313 313 307 303 301 300 300 299 298 297 296 296 295 292 291 291 290 290 289 289 289 290 289 289 290 290 290 291 291 292 292 291 291 291 292 292 292 292 292 292 291 290 289 289 289 289 289 288 288 288 287 287 287 287 287 287 287 288 288 289 291 292 293 294 295 296 297 297 298 297 297 297 297 297 297 297 297 297
313 316 321 324 323 323 324 324 321 317 322 326 324 319 316 321 328 320 312 312 311 307 304 301 300 300 299 298 297 296 296 296 294 291 290 290 290 289 289 289 289 289 289 289 290 290 291 290 291 290 289 289 290 290 290 290 290 290 289 288 288 287 287 288 287 287 286 287 286 286 286 286 286 286 286 286 286 286 286 286 287 288 289 290 291 292 294 295 295 296 296 296 296 296 296 296 296
315 321 324 325 326 323 323 325 321 320 327 326 319 316 314 319 326 320 313 309 306 306 305 301 300 300 299 299 298 297 296 296 295 293 290 290 290 289 289 288 288 288 289 289 289 289 289 289 289 289 288 288 288 288 289 288 287 287 287 287 286 286 286 286 286 286 286 286 286 286 286 286 286 286 286 286 286 286 286 286 286 286 286 286 286 287 288 289 291 292 293 294 294 295 295 295 295
319 322 324 325 325 322 324 326 322 322 324 319 315 315 314 319 321 317 315 309 302 304 303 300 300 299 299 299 298 297 296 296 295 294 291 289 289 289 288 288 288 288 288 288 288 288 288 288 288 288 287 287 287 287 287 287 286 286 286 286 286 286 286 286 286 286 286 286 287 287 286 286 287 287 287 287 286 286 286 286 286 286 286 286 285 285 285 286 286 287 288 290 291 292 293 293 294
317 320 324 325 324 324 326 324 318 320 321 314 312 315 317 321 318 312 310 305 299 300 301 300 299 298 298 299 298 297 296 295 295 294 291 289 289 288 288 288 287 288 288 288 288 288 288 288 287 287 287 286 286 286 286 286 286 286 286 286 286 286 286 286 286 287 287 287 287 287 286 286 286 286 286 287 287 287 287 287 287 287 287 286 286 286 286 286 285 285 285 286 287 288 289 291 292
315 319 320 322 326 327 326 324 320 321 322 314 310 314 323 324 314 304 302 300 298 299 300 299 299 298 298 298 297 297 296 295 295 293 291 289 289 288 287 288 288 288 288 288 288 288 288 288 287 287 287 287 287 286 286 286 286 286 286 286 287 287 287 287 287 287 286 286 286 286 286 286 286 286 286 286 286 286 287 287 287 287 287 287 287 287 287 287 286 286 286 286 285 285 286 287 288
314 315 316 319 323 322 320 321 320 318 320 317 314 319 324 318 307 300 300 299 298 299 299 299 299 298 298 297 297 297 296 295 294 294 291 289 289 288 288 288 288 288 288 287 287 287 287 287 287 287 287 287 287 286 286 286 286 286 287 287 287 287 287 287 287 286 286 286 286 286 285 285 285 285 285 286 286 286 286 286 286 286 286 286 286 286 286 286 286 286 286 286 286 286 285 285 285
315 313 319 319 317 319 321 320 315 314 318 320 318 321 320 313 307 302 300 300 299 298 298 298 298 298 298 297 297 297 297 295 295 293 291 289 289 289 288 289 288 288 287 287 287 287 287 287 287 287 287 286 286 286 286 286 286 286 287 287 287 287 287 287 286 286 286 286 285 285 285 285 285 285 285 285 285 285 285 285 285 285 285 285 285 285 285 285 285 285 286 286 286 286 286 286 286
317 318 321 315 313 319 323 322 320 319 320 319 318 320 319 318 314 305 301 302 301 299 299 298 298 298 298 297 297 297 296 295 294 292 289 289 290 289 289 289 289 288 287 287 287 286 286 286 286 286 286 286 286 286 286 286 286 287 287 287 287 287 287 287 286 286 286 286 286 285 285 285 285 285 284 284 284 284 284 283 284 284 284 284 284 284 283 283 283 284 284 284 284 284 285 285 286
316 319 316 314 319 322 320 320 323 323 320 321 323 320 317 318 317 313 310 307 302 300 299 298 298 298 297 297 297 297 296 295 294 292 290 289 290 290 290 290 290 289 288 288 287 286 286 286 286 287 286 286 286 286 286 287 287 287 287 287 287 287 287 287 286 286 286 286 286 285 285 285 285 285 284 285 284 284 284 283 283 283 283 283 282 282 282 282 282 282 282 282 283 283 283 283 284
312 313 311 314 320 322 321 319 321 323 321 321 324 321 319 319 318 320 320 309 301 300 299 298 298 297 297 297 296 296 295 293 293 293 291 289 290 291 290 290 290 290 290 289 288 287 287 286 287 287 286 286 286 286 287 287 287 287 287 287 287 287 286 286 286 286 286 286 286 285 285 285 284 284 284 284 284 284 284 284 284 284 284 283 283 282 281 281 281 281 281 281 281 281 281 282 282
314 315 315 316 315 317 319 317 317 322 323 324 323 318 321 322 314 315 316 308 300 299 299 298 297 297 297 296 296 295 294 293 293 293 290 289 290 291 291 291 291 290 290 290 289 288 287 287 287 286 286 286 286 287 287 287 287 287 287 287 286 286 286 286 286 286 286 286 286 285 284 284 283 283 283 283 283 283 283 283 283 283 283 283 283 283 282 282 281 280 280 280 280 280 280 281 281
316 317 317 318 316 317 319 317 317 319 320 324 323 316 320 319 308 308 310 305 301 299 299 299 298 298 297 296 296 295 295 294 294 292 289 288 290 291 291 292 291 291 291 290 290 289 288 287 287 286 286 286 286 287 287 287 287 287 287 287 286 286 286 286 286 286 286 286 285 285 284 283 282 282 281 281 281 281 281 281 281 281 281 282 282 282 282 282 281 280 280 280 280 280 280 280 280
Wind_Speed
9 9 7 7 8 8 4 3 2 2 4 2 1 0 2 3 2 1 2 3 1 3 3 2 3 3 1 2 4 5 4 4 4 3 1 5 4 4 16 12 5 10 21 23 24 28 27 27 25 23 22 21 21 20 20 19 17 16 15 14 13 11 10 10 9 9 8 8 8 10 10 9 9 8 8 8 8 8 7 6 7 6 6 7 6 6 6 7 7 6 6 6 6 7 7 6 6
10 8 6 6 7 4 1 3 3 3 6 2 2 2 3 2 1 3 5 4 4 4 2 1 2 2 3 3 3 2 2 5 5 3 3 5 4 6 16 14 8 9 19 22 23 28 28 28 26 25 23 22 22 21 20 20 19 17 16 15 14 12 11 11 10 10 9 9 9 10 11 10 9 8 8 7 7 7 6 6 5 5 6 6 6 6 7 7 5 3 3 3 3 4 5 5 4
10 8 7 5 4 3 1 4 3 1 5 2 3 4 2 1 4 7 8 7 7 5 4 0 2 2 4 5 1 2 2 4 3 3 3 4 3 6 15 16 10 9 16 21 22 27 29 28 27 26 24 24 22 22 21 20 19 18 17 16 14 13 11 11 11 11 10 10 9 11 11 11 10 8 8 7 6 7 7 6 5 5 5 5 6 6 7 7 4 1 1 0 1 2 3 3 3
10 8 8 4 1 4 4 4 2 4 3 2 2 4 2 3 7 7 7 7 7 4 3 1 1 1 3 3 1 1 3 4 4 4 1 5 5 5 13 16 12 10 15 20 21 26 28 29 28 27 26 25 23 23 22 20 20 18 17 16 14 13 12 12 11 11 11 10 9 9 10 9 8 7 6 6 5 6 6 6 5 5 5 5 6 6 6 5 2 2 3 3 2 2 4 4 4
9 7 7 3 2 2 3 3 2 4 3 4 1 4 5 6 6 6 6 7 5 2 1 1 1 2 1 1 2 1 3 3 4 6 3 4 7 6 12 15 13 12 15 19 20 24 27 28 28 27 26 26 24 24 23 22 21 18 17 16 14 13 12 12 12 12 12 11 10 9 9 8 7 7 6 6 5 6 6 6 6 6 5 5 6 5 5 3 1 3 4 5 6 5 5 6 5
7 4 6 6 3 1 2 3 2 0 4 5 3 6 6 6 6 5 5 6 5 2 2 1 1 1 1 2 2 3 4 1 1 6 4 3 7 7 11 14 13 13 16 18 19 23 26 28 28 28 27 26 24 23 25 23 21 19 18 17 15 14 13 12 13 13 13 12 11 10 9 9 8 8 8 7 6 6 6 6 7 6 5 6 5 5 5 3 2 3 4 3 6 7 5 5 5
7 3 4 5 2 2 3 3 3 2 3 5 4 5 6 6 5 2 4 3 3 2 1 1 1 2 1 3 2 3 3 3 2 3 4 5 8 8 11 12 12 13 16 17 19 22 24 27 28 28 28 27 25 23 25 24 22 21 20 19 17 15 15 14 15 14 13 12 12 12 11 10 9 9 9 8 7 7 6 6 7 6 6 6 5 4 3 1 2 4 4 2 5 7 4 4 4
7 3 1 4 2 3 4 2 3 3 1 3 4 4 6 6 3 1 2 1 1 3 2 2 2 2 2 3 2 5 3 5 6 4 5 8 9 9 11 11 11 13 16 17 18 20 22 26 28 29 28 27 26 24 25 24 22 21 20 20 18 17 17 17 17 15 14 13 13 13 12 11 10 10 10 10 9 7 6 7 7 7 7 7 6 5 3 1 2 3 2 3 6 6 5 4 3
6 4 1 3 2 3 3 1 2 3 3 4 4 4 4 3 3 1 1 1 1 2 4 3 1 1 4 4 3 5 4 4 4 4 7 8 9 9 10 10 10 12 15 17 17 19 21 25 28 29 29 28 27 25 25 24 23 22 20 20 19 18 18 17 17 16 15 14 14 14 13 12 11 11 11 11 10 8 7 7 7 7 7 7 7 6 5 3 3 4 5 7 8 7 7 5 2
4 4 2 2 3 4 3 1 2 2 4 4 4 6 4 2 3 1 2 0 1 2 5 2 1 1 3 4 4 3 4 4 1 4 8 9 9 9 10 9 9 10 13 16 17 18 20 23 27 29 30 29 28 26 25 25 24 23 21 20 20 19 19 18 17 17 17 16 15 15 14 13 12 12 12 12 11 9 8 7 7 7 6 6 6 6 7 5 4 7 9 9 10 9 7 4 2
2 4 3 4 4 3 1 2 4 4 6 5 4 6 5 3 2 2 2 0 2 2 3 2 1 2 1 4 4 2 5 5 2 4 7 9 9 10 10 10 10 11 12 14 16 17 18 21 26 29 29 29 29 27 26 26 25 25 22 20 20 20 20 20 18 18 18 18 17 16 15 14 13 13 13 13 13 11 10 8 8 7 6 6 6 7 7 7 6 7 10 11 11 9 5 3 2
2 3 4 5 3 1 2 2 5 6 7 4 2 4 2 2 1 1 1 1 1 3 4 2 1 2 1 4 4 4 6 4 4 4 6 8 8 10 11 11 11 11 12 13 15 16 17 19 24 28 29 29 29 28 27 26 26 26 24 22 21 21 21 21 20 19 20 19 18 18 17 15 14 14 14 14 14 13 11 10 9 8 7 6 7 7 7 8 6 7 11 12 10 6 3 3 4
3 1 4 3 3 2 2 1 4 4 6 3 2 3 0 1 1 4 3 1 1 3 4 5 3 3 0 4 4 6 6 1 6 4 6 7 8 10 12 13 12 12 13 14 15 15 16 18 22 26 29 29 29 29 29 27 26 26 26 23 22 21 21 21 21 20 20 20 19 19 17 16 15 15 15 15 15 14 12 11 10 9 8 7 7 7 7 7 6 9 12 12 9 5 3 4 5
2 3 4 2 1 2 3 1 2 1 2 3 3 4 3 1 2 4 4 3 5 3 2 3 5 2 2 3 5 5 3 0 5 6 6 8 9 10 12 15 15 13 13 15 16 16 16 17 20 24 28 29 29 29 29 28 27 27 27 25 23 22 21 21 21 20 20 20 20 19 18 17 16 16 16 16 15 14 13 12 11 9 9 8 7 7 9 8 9 12 12 12 10 6 4 5 6
3 2 4 3 2 1 3 0 1 4 1 3 3 4 5 3 1 1 2 1 6 3 1 0 3 1 2 1 5 5 4 3 3 6 7 9 10 10 11 14 15 15 14 16 17 17 17 17 19 22 26 29 30 30 30 29 28 27 27 26 24 23 22 20 20 20 19 19 19 20 19 18 17 16 16 16 16 15 14 13 11 10 9 8 7 7 9 9 11 13 12 12 11 7 5 6 6
3 3 5 3 1 1 2 1 2 3 2 4 3 3 4 5 1 1 3 2 4 2 2 2 1 1 3 4 6 4 6 5 4 6 8 9 10 11 12 14 14 15 15 17 18 19 19 19 20 21 25 27 29 30 30 30 29 27 26 26 25 24 23 21 20 19 19 18 19 19 19 18 17 16 16 17 17 16 15 13 12 10 9 9 7 6 8 11 13 12 12 12 11 8 7 7 8
3 4 4 2 1 1 2 3 2 2 4 6 6 3 1 6 3 1 2 2 3 3 2 4 2 1 4 5 5 6 8 7 6 7 8 10 10 10 12 14 15 16 17 18 20 21 21 21 21 22 24 26 28 30 30 30 29 28 27 26 25 24 23 22 21 20 19 19 19 19 19 18 18 17 16 18 18 17 16 14 12 10 10 9 8 6 8 12 13 12 13 13 12 10 8 9 9
4 4 3 0 3 3 4 6 5 2 3 5 4 2 2 5 5 4 3 3 4 6 6 4 3 5 7 10 11 11 10 8 7 8 9 10 11 11 14 16 17 18 19 20 21 22 22 23 23 23 24 25 27 29 30 31 30 29 28 27 27 26 24 23 23 21 21 20 19 19 20 19 19 18 17 18 19 18 17 15 13 12 11 10 9 8 8 12 13 13 14 14 14 11 9 10 9
4 3 2 2 5 5 5 7 5 3 2 5 5 2 2 4 3 3 3 7 7 8 10 5 3 6 8 10 10 11 10 8 9 9 10 12 12 12 14 16 17 19 19 19 21 22 23 24 23 24 25 25 27 28 30 30 31 30 29 29 28 27 26 25 24 23 22 21 20 20 20 20 19 19 19 19 20 19 18 16 15 13 12 11 10 9 9 12 13 13 14 15 13 11 11 11 10
1 4 1 5 6 4 5 6 6 5 3 4 6 1 2 5 3 1 1 6 9 7 9 5 6 7 5 7 7 10 11 9 9 8 10 11 10 10 11 12 14 16 16 17 20 21 23 24 24 24 24 25 26 28 29 30 30 30 29 29 29 29 27 26 25 25 24 23 22 21 21 21 20 20 19 19 20 20 19 17 16 14 13 12 12 11 10 12 12 13 15 15 12 12 12 11 11
1 3 3 6 3 2 6 6 7 6 4 3 4 3 4 4 3 1 1 4 9 8 7 5 6 9 7 7 8 10 10 9 8 7 9 11 13 13 14 15 17 18 18 19 20 21 23 23 24 24 24 24 25 27 28 29 29 29 29 29 29 29 28 27 26 26 25 25 23 22 22 21 20 20 20 21 21 21 20 19 17 16 15 14 13 12 12 12 13 15 18 17 12 12 13 12 11
2 2 5 5 3 3 7 4 6 4 3 2 4 5 5 3 2 2 1 2 6 7 6 4 3 6 6 6 8 10 11 12 13 14 14 14 14 14 14 14 15 16 17 19 19 20 21 23 24 24 24 25 25 26 27 28 28 28 28 28 28 29 29 29 28 27 27 26 25 23 23 22 21 20 22 23 23 22 21 20 18 17 17 15 15 14 13 13 14 17 19 19 15 13 13 12 12
1 4 3 3 4 4 6 3 4 2 0 3 3 4 2 4 5 3 4 7 11 8 6 5 4 4 5 8 9 10 11 10 13 15 15 16 16 16 17 16 14 13 11 13 15 16 18 20 22 24 25 25 25 25 26 26 27 28 28 28 27 28 28 28 28 28 28 28 26 24 23 22 22 21 23 24 24 23 22 21 20 20 19 17 16 15 15 15 15 17 19 19 17 14 13 13 12
2 3 4 4 4 5 7 5 6 3 3 6 2 3 3 4 6 2 3 12 12 5 5 5 6 10 12 12 10 8 9 10 12 14 15 16 16 15 18 19 17 15 11 9 9 10 13 15 18 21 24 25 26 25 25 26 26 26 27 27 27 27 27 27 28 28 28 28 27 26 23 23 23 23 24 24 24 23 23 22 21 21 20 19 18 17 17 17 17 18 19 20 19 17 15 13 13
3 5 4 3 3 6 7 6 8 7 6 5 1 5 7 7 4 2 9 15 7 5 7 7 9 13 14 11 9 9 10 12 14 15 17 19 19 18 20 22 20 19 17 14 10 7 8 11 13 16 20 23 25 25 24 25 25 25 26 26 26 26 26 26 26 27 27 26 25 25 24 23 24 24 24 24 24 24 23 23 22 22 21 19 19 18 19 18 19 19 20 21 21 20 17 15 14
5 6 3 3 5 7 6 6 8 6 5 3 2 9 7 4 2 2 13 11 5 8 8 8 11 12 10 9 10 10 10 12 15 16 17 20 23 24 25 25 24 22 21 18 14 9 6 8 10 11 15 19 22 23 23 23 23 23 24 25 25 24 25 25 25 25 26 26 25 24 24 24 24 24 25 25 25 24 24 23 22 21 21 20 20 20 20 20 20 20 21 22 22 21 19 17 15
4 4 4 5 7 8 4 6 8 4 4 5 6 10 6 2 0 3 8 1 7 10 10 9 11 10 9 8 8 10 11 13 16 17 19 23 25 26 27 27 26 24 22 21 18 14 7 4 5 6 9 14 18 20 21 21 21 21 21 22 22 22 22 23 23 24 25 26 27 25 24 24 24 24 25 26 25 25 25 24 23 23 23 22 21 22 22 21 21 21 21 22 23 23 21 19 17
3 2 5 7 6 8 5 7 7 1 3 5 7 5 3 2 0 7 5 6 9 10 10 9 10 8 7 8 8 10 11 14 17 19 20 21 21 23 24 25 25 23 24 23 21 17 10 4 1 1 4 9 13 17 18 19 19 19 19 19 20 20 20 20 21 23 23 24 25 24 24 24 24 24 24 25 24 24 25 24 25 24 24 23 23 23 22 22 21 21 21 22 23 23 22 21 20
1 1 4 8 7 8 7 4 3 1 1 4 7 2 4 1 6 10 4 6 9 11 10 7 8 6 6 7 6 8 11 15 18 19 18 19 19 21 22 23 23 23 23 23 22 19 15 10 6 3 0 4 9 13 15 16 16 17 17 17 17 17 18 19 19 20 21 21 21 20 21 22 23 24 24 24 24 25 26 26 26 26 25 25 25 24 23 22 22 22 22 22 23 23 23 22 21
1 2 1 5 7 7 6 1 2 1 0 3 5 3 6 6 10 8 6 6 8 11 8 6 6 5 6 6 6 7 11 15 16 18 19 20 21 21 22 23 24 23 24 24 24 23 20 15 10 7 4 0 5 9 11 12 12 12 13 14 14 15 16 17 18 18 19 19 18 18 19 19 20 21 22 23 25 26 26 26 26 26 26 26 26 24 23 23 22 22 22 23 23 24 24 23 23
1 1 1 2 2 5 7 1 1 1 1 1 4 2 6 8 10 4 5 5 9 9 5 6 5 5 5 5 6 6 9 13 15 18 21 22 22 22 24 25 25 25 25 26 27 26 24 21 18 14 10 6 3 1 4 5 5 6 7 8 10 12 13 15 16 17 18 18 18 18 19 19 20 20 21 22 23 25 25 26 26 26 26 26 25 24 23 23 23 23 22 23 23 24 24 24 23
2 1 3 3 2 5 9 4 3 1 2 2 5 2 5 8 10 2 5 6 9 8 5 6 5 6 6 5 6 5 6 12 16 20 22 22 22 23 24 25 26 26 26 26 26 27 27 26 24 21 18 14 10 7 4 3 2 2 2 3 5 7 9 11 12 14 15 16 17 17 18 18 18 19 20 20 21 23 24 24 24 24 25 25 24 24 23 23 23 23 22 22 23 24 24 24 24
3 1 3 3 3 3 7 4 1 1 1 2 2 2 4 6 9 3 7 7 8 8 6 6 6 6 6 5 5 5 5 9 14 19 22 22 22 22 24 25 26 27 27 27 27 28 28 27 26 26 25 22 19 15 12 10 9 8 7 7 5 3 2 1 3 6 8 10 12 14 16 17 17 18 19 20 21 22 23 24 24 24 24 24 24 23 23 23 23 22 22 22 23 23 24 24 24
3 1 2 4 3 2 3 4 4 5 4 1 1 2 6 8 10 6 8 6 8 8 6 6 6 6 5 5 5 5 6 7 10 16 19 20 21 22 23 25 26 27 28 28 28 28 28 27 26 26 26 25 24 23 21 19 18 17 17 16 15 14 14 12 9 7 6 4 4 5 8 10 13 15 18 20 21 22 23 23 24 24 25 25 24 23 23 23 22 21 21 21 22 23 24 24 24
3 3 2 3 3 4 4 4 3 5 4 2 1 3 8 11 10 6 7 5 8 8 6 6 6 6 5 5 6 6 7 7 9 14 17 19 20 22 23 25 27 28 28 28 28 27 27 27 25 24 24 23 23 23 24 23 22 22 22 22 22 22 21 20 18 17 17 15 13 12 8 7 7 7 9 11 14 17 19 20 22 22 23 24 24 23 22 22 21 21 22 21 22 22 23 24 23
6 5 4 4 4 5 5 5 5 2 4 4 4 5 7 10 9 6 8 5 9 8 6 6 5 6 5 5 5 6 6 7 10 15 18 19 21 22 23 25 27 28 29 29 29 29 28 28 26 26 24 22 20 20 21 21 22 23 23 23 24 25 24 24 24 23 23 21 19 18 16 15 13 11 10 9 7 8 10 12 14 16 17 18 20 20 21 21 21 21 22 21 21 22 23 23 22
4 2 2 4 5 6 5 5 5 1 1 6 4 4 7 9 6 7 7 5 8 6 6 6 5 5 5 5 5 6 6 6 11 16 19 21 22 23 25 26 28 29 30 30 31 31 30 29 28 28 26 24 23 22 22 22 23 24 25 25 26 26 25 24 25 24 24 23 21 20 20 19 17 16 15 14 12 11 9 9 8 9 10 11 13 15 16 18 19 20 20 20 20 21 22 22 22
2 1 2 4 5 6 7 5 5 1 2 4 3 3 8 7 4 7 6 6 7 5 6 6 5 6 5 6 6 5 4 6 10 15 18 21 22 23 25 27 29 30 30 31 31 31 30 30 30 29 27 26 27 26 25 25 25 24 25 26 26 26 26 25 26 24 23 21 20 20 20 19 18 18 17 17 16 15 14 13 13 11 11 9 9 10 12 14 15 16 17 18 18 19 20 20 20
2 2 2 4 4 4 7 6 4 1 3 3 2 2 8 5 5 6 6 6 5 5 6 5 5 6 5 5 5 5 5 6 8 11 15 19 20 22 24 26 28 29 30 31 31 31 31 31 30 29 27 27 27 26 26 27 26 24 24 25 25 26 28 27 25 24 22 21 21 21 20 19 18 18 18 17 17 17 16 16 15 15 14 13 12 11 11 12 13 14 15 15 14 14 16 17 18
2 3 3 4 3 1 4 5 4 2 1 2 3 4 6 2 3 5 6 5 5 6 7 6 5 5 5 5 5 5 6 6 6 8 11 16 19 21 23 24 27 30 32 32 32 31 31 30 30 29 28 27 25 24 24 24 23 23 23 23 23 24 24 23 23 23 23 23 23 22 21 20 19 18 18 17 17 17 17 16 16 15 15 14 14 13 13 13 13 14 14 15 14 14 15 15 16
3 5 5 5 5 5 6 4 5 4 3 2 0 3 5 2 1 2 4 4 5 5 6 7 6 5 5 5 5 5 5 5 6 6 8 14 17 19 21 24 27 31 31 31 31 30 30 30 29 28 28 27 25 23 22 20 20 20 21 21 21 22 23 24 26 27 26 26 25 24 22 21 19 19 19 18 18 17 17 17 16 15 15 14 14 14 14 14 14 14 15 15 15 15 17 17 16
4 5 9 10 8 8 6 2 4 4 3 3 3 3 5 3 2 3 3 3 4 4 5 6 5 5 5 5 5 5 5 5 5 6 8 12 15 17 21 25 27 29 28 28 29 30 30 31 30 29 29 28 26 25 23 22 23 24 25 26 26 27 28 29 28 27 27 27 25 24 23 22 21 20 20 19 18 18 18 17 17 17 16 15 15 14 13 13 13 14 14 15 15 15 17 18 18
2 4 8 10 7 6 4 2 2 1 3 3 2 1 5 5 3 4 5 4 4 4 5 4 4 4 4 4 3 4 4 4 5 6 9 12 15 16 20 23 25 26 25 27 29 30 31 31 32 32 31 31 29 28 27 27 29 30 31 32 32 31 30 28 27 26 26 24 23 23 24 24 23 22 21 20 19 18 18 17 18 17 17 17 16 15 15 15 14 13 13 13 14 14 15 16 19
3 4 4 6 6 6 5 5 3 2 2 4 3 1 3 4 4 2 6 6 3 3 3 3 3 3 3 3 3 3 4 4 4 5 8 12 14 15 17 20 22 23 24 27 30 30 31 31 32 33 33 33 32 31 31 31 32 33 33 34 34 33 31 30 29 29 28 26 26 26 27 27 26 26 25 23 22 20 19 18 17 17 17 17 17 16 16 16 14 13 13 13 13 13 13 14 18
5 3 6 6 6 5 4 5 2 1 2 4 5 1 2 5 4 1 5 4 2 3 3 2 2 1 1 2 3 4 4 4 4 4 7 11 13 14 16 19 21 23 25 27 28 29 30 31 31 32 33 33 32 31 32 32 33 33 33 34 34 32 31 31 30 30 30 30 30 30 30 30 30 30 29 29 27 25 23 21 19 18 18 18 17 17 16 16 16 15 15 15 14 14 13 13 15
4 5 6 5 5 5 4 5 3 2 2 4 6 3 2 5 4 1 2 2 5 5 4 4 4 3 2 1 2 3 4 4 4 6 8 10 12 12 14 19 21 23 24 26 27 28 29 29 30 31 32 32 31 31 31 32 31 31 32 32 32 31 30 30 30 31 31 30 31 31 31 31 31 31 32 32 31 31 29 27 25 23 21 20 18 17 17 17 17 17 16 16 16 16 15 14 14
5 6 6 6 5 5 4 2 3 2 2 6 8 7 5 4 5 3 4 3 4 6 5 5 4 4 4 3 2 2 3 3 4 5 8 10 11 12 15 19 20 21 23 25 27 27 28 28 29 31 31 30 30 30 31 32 31 31 32 31 31 31 30 30 31 32 31 30 31 31 30 30 30 31 31 31 31 31 30 30 29 28 26 25 23 22 21 20 19 18 17 17 17 17 17 17 16
5 4 4 3 3 4 4 4 3 0 5 5 5 4 5 4 5 4 4 2 3 5 7 9 9 7 6 4 4 3 3 3 3 4 5 8 10 11 14 17 19 21 23 25 25 26 27 27 28 30 30 29 29 29 30 31 31 31 31 31 31 31 31 31 32 32 30 30 30 28 28 28 28 29 29 29 30 29 29 29 29 28 28 28 27 26 25 23 22 21 20 19 18 17 17 17 18
5 4 4 3 2 3 3 3 0 3 6 4 2 1 3 6 5 4 3 3 3 5 6 10 12 10 7 6 5 4 3 3 3 3 4 5 7 9 12 15 17 20 22 23 23 24 25 26 27 29 29 28 28 28 29 30 30 30 29 29 29 29 29 30 30 29 29 29 28 28 28 28 28 28 28 28 27 27 27 27 27 27 27 27 26 26 25 25 24 24 24 23 21 20 18 18 18
4 5 4 4 1 0 2 3 2 4 5 2 1 0 2 5 3 2 4 5 5 6 5 9 11 10 9 7 5 4 3 3 3 3 2 3 5 7 10 13 16 19 20 20 22 22 23 24 25 27 26 25 25 26 27 28 28 28 27 27 27 27 28 27 27 27 26 26 26 27 28 27 27 27 26 26 25 24 24 24 24 24 24 24 25 25 25 25 25 24 24 24 24 23 21 20 20
4 4 5 4 4 4 4 4 3 4 4 2 2 1 2 3 1 2 4 4 4 2 3 8 8 7 6 5 4 4 4 3 3 2 2 3 6 8 11 14 16 18 18 19 20 20 21 22 22 23 23 22 22 23 24 25 26 25 25 25 25 25 25 25 25 25 24 24 24 25 25 26 26 25 25 25 24 24 24 23 23 23 23 23 23 24 24 24 25 25 24 24 24 24 23 23 22
2 3 4 2 4 4 2 3 5 3 2 3 2 3 4 4 1 2 2 2 4 4 5 8 7 5 5 5 5 5 4 4 4 3 3 5 7 9 11 14 16 17 18 18 19 18 19 20 20 21 21 20 20 21 22 22 22 22 23 23 24 24 24 24 24 23 23 23 22 23 24 24 24 24 24 24 25 25 25 25 25 24 24 24 24 24 24 24 25 25 25 25 25 25 25 24 24
2 2 3 4 4 6 2 2 1 3 1 4 2 3 4 1 0 3 3 3 4 3 4 6 6 6 6 5 5 5 5 5 4 4 5 7 9 10 12 14 15 16 17 17 17 17 18 18 19 20 19 19 19 19 19 19 19 20 21 22 22 23 24 24 23 23 23 22 22 22 23 23 24 24 24 25 25 25 26 26 26 26 26 27 27 26 26 26 26 26 25 25 25 25 26 25 25
5 3 5 3 2 4 3 1 3 3 3 4 1 4 4 2 2 3 2 1 2 3 4 5 6 6 6 6 6 6 6 5 5 5 7 9 10 10 12 13 14 15 15 16 16 16 16 17 17 18 18 18 17 17 17 17 17 17 18 19 20 21 22 23 23 23 23 23 23 23 23 24 25 25 26 27 27 28 29 29 29 29 29 29 29 29 29 29 29 28 28 27 26 26 26 25 25
5 4 3 3 3 1 2 2 2 1 3 4 3 4 3 4 4 2 4 8 8 7 7 7 8 8 7 7 7 7 6 5 5 5 6 9 11 11 12 13 13 13 13 13 14 14 14 15 14 15 15 15 14 14 14 14 14 14 14 15 16 18 19 21 21 22 22 23 24 24 24 24 25 26 26 27 28 30 31 32 33 34 34 34 33 32 31 31 30 30 30 29 29 28 28 27 27
3 1 1 2 2 4 2 2 3 2 3 4 5 5 4 5 5 6 9 11 12 11 9 9 10 10 9 8 8 8 6 6 6 6 6 9 13 13 13 13 12 12 11 11 11 11 12 12 12 12 12 12 11 11 11 11 11 11 11 12 14 16 18 19 20 22 23 24 25 25 25 25 25 26 26 27 28 29 30 31 31 33 34 35 36 35 34 33 32 30 29 29 29 28 28 29 29
2 2 2 1 1 2 1 1 2 3 3 3 3 5 6 4 3 6 8 7 11 13 11 10 9 10 10 9 8 7 6 7 7 6 7 10 14 13 13 12 11 11 10 9 8 9 9 10 10 10 10 10 10 10 10 9 9 8 9 11 12 14 16 17 19 21 23 25 26 26 26 26 26 26 27 28 29 29 30 30 30 31 32 33 34 35 36 36 36 34 32 30 29 28 28 28 28
5 5 5 5 4 3 1 3 2 3 3 4 4 6 7 4 1 3 4 5 9 12 11 10 10 11 10 8 7 7 7 7 7 6 8 12 14 14 13 12 11 11 9 8 7 7 7 7 7 7 8 8 8 8 7 6 6 6 8 9 11 12 13 16 18 20 22 24 26 27 27 27 27 28 28 28 29 29 30 30 31 32 33 33 34 35 36 37 38 38 38 35 32 30 30 30 29
Wind_Direction
335 333 329 316 308 308 311 68 75 322 71 77 311 42 237 209 209 214 281 295 317 262 216 155 139 128 86 146 190 195 179 175 167 128 209 239 293 217 184 179 157 170 180 179 182 187 185 181 184 189 192 190 189 189 191 190 189 191 189 188 187 182 180 179 179 175 172 172 164 158 157 155 154 151 149 148 149 152 150 149 144 130 133 136 140 147 138 125 121 122 118 121 126 125 127 127 124
340 332 331 312 313 332 259 80 89 339 51 78 274 174 258 309 325 215 215 227 218 262 302 154 137 84 59 97 143 138 221 226 190 178 265 258 283 206 185 186 174 168 182 181 182 187 189 185 185 189 192 192 192 191 193 193 192 195 194 192 190 186 185 185 184 180 177 180 173 164 164 163 163 158 154 155 159 160 154 155 151 137 142 152 153 147 126 111 107 106 104 124 137 142 148 156 157
340 331 336 316 313 33 56 45 94 52 71 115 281 242 298 10 228 232 215 220 236 276 326 308 134 114 66 32 68 121 265 263 221 220 283 236 237 204 189 194 185 172 186 186 185 188 191 189 186 189 191 193 194 194 195 196 196 197 197 196 192 189 188 188 188 184 181 182 176 169 167 168 168 162 162 165 166 168 165 167 161 148 156 164 155 140 118 104 98 63 353 7 163 198 196 202 212
338 331 338 342 2 35 58 42 122 112 106 184 289 265 263 194 226 245 235 243 258 304 337 76 56 210 101 8 275 131 283 280 239 200 265 216 201 205 192 196 194 184 188 192 190 190 194 192 189 190 192 193 194 196 197 198 199 199 200 199 196 192 189 189 187 186 184 183 179 174 169 170 168 162 170 170 168 176 177 178 170 163 171 166 146 134 115 101 88 347 328 335 325 261 245 248 250
336 331 345 20 80 41 86 70 100 99 164 184 115 272 248 207 230 252 264 284 281 299 277 107 16 294 101 201 168 138 250 278 264 210 239 229 199 197 191 197 199 192 190 194 194 193 196 194 193 192 193 194 195 198 199 199 200 202 203 201 200 197 193 192 189 187 185 184 183 182 178 175 174 172 178 179 178 177 181 191 178 174 179 159 139 132 114 101 71 319 317 331 318 293 262 257 263
344 340 10 46 89 109 96 90 106 245 219 171 141 258 249 211 220 246 291 311 293 251 204 62 17 331 341 256 197 198 223 327 295 215 234 226 203 195 191 200 200 195 191 193 196 196 198 197 195 194 195 195 196 200 200 201 201 202 206 202 203 201 197 196 192 191 187 187 185 186 189 185 184 186 187 188 192 182 188 203 182 176 177 153 143 139 123 104 60 317 317 339 313 309 282 256 262
358 346 15 54 51 39 91 128 181 243 231 173 176 247 255 235 214 238 336 334 306 317 100 29 342 74 309 303 307 242 244 242 236 236 226 198 205 196 191 205 204 195 192 194 198 199 200 199 198 197 197 198 197 202 203 202 202 203 208 206 204 201 199 198 193 193 192 190 190 191 194 191 192 198 195 192 198 190 188 200 180 172 170 151 153 153 134 104 21 338 346 360 309 321 312 264 263
14 8 20 79 34 30 86 118 226 221 245 223 222 240 255 247 209 133 357 359 280 323 5 334 1 62 283 7 335 265 302 259 256 258 207 188 202 196 194 209 208 195 193 197 199 201 203 202 201 199 199 200 199 202 205 204 204 204 210 209 204 202 200 199 193 193 196 193 194 196 194 194 200 208 204 197 203 196 187 191 177 172 173 163 171 171 161 190 325 317 323 306 303 328 325 299 267
30 29 90 73 73 30 49 11 301 240 265 292 284 261 269 240 196 134 111 336 308 296 307 294 15 20 299 352 290 275 335 294 265 228 189 185 198 196 199 208 213 201 195 200 202 204 205 206 205 203 202 202 201 203 206 206 206 206 211 210 204 204 202 200 195 193 196 195 197 198 197 199 204 213 211 204 204 200 192 184 176 180 181 183 191 194 195 210 285 265 252 275 296 313 313 308 254
37 25 114 63 79 38 13 314 311 258 261 285 286 261 272 241 200 97 103 24 315 305 301 261 115 324 315 316 280 305 332 301 255 188 179 182 193 198 204 208 217 213 204 202 204 208 209 210 208 207 206 205 204 204 207 208 208 207 212 211 204 207 201 198 199 196 195 196 199 199 201 204 209 216 212 205 203 200 196 187 184 187 187 201 213 220 220 225 252 253 259 270 289 300 300 297 217
37 358 94 72 67 52 65 245 293 281 282 298 288 257 237 220 174 38 55 7 287 303 302 88 104 237 355 306 268 294 312 288 196 171 179 182 193 201 206 210 216 219 219 212 208 211 212 213 211 210 209 208 207 207 209 209 209 208 212 211 206 208 203 197 199 199 198 197 200 201 203 206 213 219 212 206 202 201 201 197 197 196 198 211 231 241 237 236 235 251 263 265 281 292 282 256 191
75 345 60 82 113 171 182 224 285 286 308 326 300 287 210 177 93 337 310 286 309 329 279 183 146 166 62 310 269 290 320 281 194 180 191 191 197 202 207 212 217 220 223 222 216 213 214 215 214 213 212 212 210 209 212 211 210 210 212 212 208 209 205 201 201 202 201 198 199 200 203 206 214 220 215 209 205 207 209 207 206 207 214 228 250 256 254 247 235 242 256 261 274 280 245 210 180
105 120 81 85 155 158 160 203 279 302 332 328 232 293 312 157 265 219 190 226 285 339 279 212 151 98 166 278 296 314 330 238 190 197 210 202 200 204 210 213 218 222 220 223 223 219 216 216 216 216 215 215 213 212 215 215 214 213 214 213 211 213 210 207 206 205 204 202 199 199 203 208 216 221 218 211 208 209 210 215 216 220 232 247 260 251 252 255 232 231 245 257 264 261 224 194 182
129 150 105 104 82 129 169 239 321 54 354 301 272 309 335 252 240 191 141 338 274 215 265 193 145 102 253 291 324 308 329 259 200 222 228 210 205 206 212 213 216 222 223 224 226 226 221 219 218 218 218 217 216 215 218 219 218 216 217 216 214 216 216 213 212 210 209 207 202 201 206 212 219 223 218 212 210 211 211 220 227 230 240 254 267 241 237 239 225 232 242 252 254 248 220 193 189
130 132 88 107 27 12 183 285 26 110 123 294 303 325 336 294 169 107 149 281 269 222 327 110 131 237 235 227 276 267 325 336 242 242 233 217 211 208 212 212 215 220 225 226 227 229 226 224 220 219 220 220 219 218 220 222 222 221 220 220 218 219 220 218 216 215 214 213 207 206 211 215 221 224 220 215 212 214 214 221 230 236 247 258 274 252 233 228 229 237 244 250 249 238 218 198 196
115 109 67 81 31 3 177 167 81 88 274 265 293 331 333 299 98 50 237 186 284 314 28 245 183 282 204 196 249 286 344 328 277 253 231 224 218 212 212 211 216 222 224 226 228 230 230 229 225 221 221 222 222 222 222 224 225 225 223 223 223 223 223 221 219 219 219 219 215 213 216 219 223 224 222 219 216 217 219 224 233 242 257 264 273 261 227 226 235 241 246 251 246 234 219 203 200
65 74 70 57 165 197 194 192 155 112 264 274 318 10 33 300 316 285 246 111 292 312 342 254 252 296 200 227 282 328 334 310 278 248 227 226 225 218 217 216 220 224 224 226 228 230 231 231 230 226 224 223 224 224 225 225 226 227 225 226 227 227 226 225 223 222 223 224 223 220 221 224 227 228 224 222 220 221 225 230 237 247 262 265 266 259 228 232 242 244 249 252 245 234 218 208 205
52 76 99 270 194 198 183 188 192 159 264 273 316 25 149 289 310 319 318 345 325 322 307 263 285 294 258 268 290 305 306 292 263 240 227 225 226 223 223 220 221 226 227 226 227 228 231 232 232 230 228 226 225 226 226 227 227 227 226 226 228 230 228 227 227 226 225 225 226 226 226 227 230 232 230 226 224 224 229 235 240 249 259 260 260 261 242 240 247 248 252 255 246 233 215 210 208
77 113 101 242 203 209 197 185 194 186 248 259 291 316 196 245 273 349 316 298 330 332 304 309 339 298 279 285 295 305 305 284 255 237 233 230 228 231 236 233 228 233 234 231 231 230 232 233 233 233 232 230 227 227 228 228 228 227 227 226 228 230 230 229 229 229 228 227 228 230 231 231 231 233 234 231 228 228 234 239 241 247 254 255 258 262 253 245 251 254 256 258 247 225 212 208 209
134 120 84 248 212 237 238 197 209 222 226 264 292 298 202 239 236 331 307 296 317 308 287 310 327 311 308 316 324 317 304 285 265 252 258 262 265 270 275 272 262 257 254 249 242 237 236 235 236 235 234 232 231 230 229 229 228 228 228 228 228 230 230 230 230 231 231 231 230 233 235 235 233 231 235 235 232 232 236 239 239 244 248 251 254 258 256 248 247 250 254 261 247 216 211 209 212
152 132 181 231 191 254 252 210 218 233 205 219 282 333 305 262 193 193 57 332 313 290 261 229 271 308 326 326 324 325 323 320 326 329 320 315 313 308 301 294 286 278 275 270 258 247 241 239 240 239 237 234 233 233 232 231 230 229 229 229 230 231 231 231 231 233 233 233 233 236 237 238 236 231 233 236 234 234 234 236 237 240 243 245 250 254 257 253 243 241 249 260 249 216 211 212 215
151 222 207 205 157 249 268 217 202 210 196 240 309 323 305 291 181 195 197 287 271 268 272 246 258 307 320 331 340 2 16 15 19 18 9 2 353 347 337 321 308 295 283 279 272 261 252 246 243 241 241 238 236 236 234 234 232 231 230 230 231 232 233 233 233 234 234 234 235 237 237 239 238 233 234 234 233 234 235 237 239 242 244 245 251 254 257 256 249 245 250 259 254 227 214 213 217
196 274 270 230 185 233 280 267 223 195 348 277 293 304 318 349 306 241 196 231 240 254 292 323 4 4 9 34 35 35 37 33 34 29 22 18 12 9 6 1 352 336 308 290 285 272 260 253 248 243 242 241 239 238 236 236 235 234 233 231 231 232 234 234 234 235 235 236 237 237 237 238 238 234 234 233 232 235 235 237 242 245 246 249 254 259 261 260 255 253 253 258 257 241 224 218 219
166 259 300 263 200 221 259 278 278 284 274 254 251 316 298 284 282 301 259 253 258 293 3 6 37 49 51 55 50 46 42 32 27 24 23 20 13 11 12 13 11 5 353 329 307 279 263 255 253 248 244 243 242 239 237 237 238 237 236 234 233 233 235 236 237 236 236 236 237 238 237 238 237 235 235 235 235 237 237 238 242 245 246 251 257 262 263 262 259 257 256 257 258 251 238 228 224
178 221 270 270 234 243 264 287 285 282 267 244 191 277 258 232 241 345 270 268 293 41 42 35 60 55 51 52 41 41 38 28 19 15 18 17 15 18 18 16 16 14 9 1 346 311 270 252 249 249 245 244 243 240 239 239 240 239 237 238 237 236 235 237 239 237 235 234 235 239 240 238 237 237 237 238 240 240 240 239 241 243 246 251 257 263 265 265 263 261 259 258 258 256 247 237 231
206 203 243 278 284 278 287 285 270 267 254 176 198 269 271 243 211 268 256 266 9 60 52 43 65 55 44 46 39 36 32 25 15 10 13 15 18 18 16 16 16 15 12 11 6 349 305 257 243 243 246 245 242 241 242 242 243 242 241 241 240 240 238 237 238 238 239 239 239 240 241 240 239 241 241 243 245 244 243 242 244 247 250 253 258 263 266 267 266 264 262 260 259 258 253 245 238
191 190 253 259 273 282 266 258 264 253 243 205 219 267 293 315 50 268 265 356 55 59 56 50 64 56 44 43 36 35 33 25 15 14 16 14 16 12 9 13 14 16 17 19 18 9 351 283 240 230 241 244 242 241 243 244 246 248 248 246 244 246 245 241 239 241 242 243 244 242 239 241 242 242 243 243 243 244 244 245 248 250 251 254 259 263 265 265 266 266 264 263 261 259 257 252 247
161 185 302 284 296 296 247 251 274 247 253 208 187 252 307 24 170 238 253 69 71 70 65 54 61 56 45 44 36 36 31 24 21 24 20 11 9 6 8 11 11 18 24 25 25 22 19 11 8 209 232 240 241 242 244 245 249 252 253 252 252 252 251 247 244 245 247 248 248 245 242 240 240 242 242 242 242 245 247 248 250 252 254 258 260 261 261 262 263 264 262 261 259 258 257 256 255
147 84 325 300 342 318 261 249 283 148 232 180 153 278 307 199 222 239 286 42 73 78 71 59 63 56 46 44 37 38 28 25 26 25 19 11 11 9 12 15 16 22 29 33 35 35 35 35 38 43 188 232 238 241 242 244 248 252 256 258 258 257 253 251 249 249 252 255 254 253 250 245 243 244 245 246 248 251 252 252 253 254 257 260 259 258 257 258 259 260 261 259 255 253 254 255 256
289 41 19 302 356 319 273 90 31 2 240 170 142 273 280 251 245 259 338 23 71 72 69 68 64 54 48 42 39 39 28 26 26 23 18 16 17 17 18 22 27 30 35 42 44 45 45 46 47 46 50 90 235 238 241 244 247 252 258 263 264 262 259 256 256 255 256 258 258 258 257 254 252 251 251 251 251 253 255 255 256 257 260 259 256 254 254 254 256 259 261 260 255 251 252 254 256
312 341 35 339 350 280 294 3 164 333 353 112 117 216 261 274 276 298 7 32 75 75 76 74 63 55 48 39 41 36 29 28 26 23 21 21 22 23 25 27 33 37 42 47 49 52 55 58 60 61 61 61 70 223 240 243 248 252 259 263 262 261 259 258 258 258 260 262 261 259 258 257 256 256 256 257 255 257 259 259 260 261 261 257 254 253 252 252 253 257 260 259 256 252 251 254 256
30 287 304 335 204 264 310 309 183 204 335 62 118 201 271 278 281 327 46 34 73 90 86 75 67 59 50 40 41 33 28 28 28 26 23 26 27 28 31 33 37 40 45 49 54 58 62 64 67 70 70 69 72 75 84 103 130 162 200 223 235 241 246 250 251 254 258 261 260 259 259 259 260 262 264 265 264 263 262 263 266 265 262 257 254 252 250 250 251 254 258 258 256 254 253 254 258
360 196 248 269 209 270 318 325 328 19 49 35 104 216 281 281 276 316 41 34 76 96 88 77 72 62 55 46 41 34 28 24 25 23 22 28 32 35 38 40 44 46 48 52 56 60 62 65 69 72 73 75 77 80 86 91 96 98 99 103 111 124 142 216 254 260 264 266 265 265 263 261 261 263 263 263 263 264 264 266 268 266 263 259 256 252 251 251 252 253 256 258 257 256 255 256 260
312 346 237 249 210 214 299 306 335 35 74 342 13 229 255 271 279 319 18 40 93 99 91 79 68 60 55 48 43 36 31 30 22 14 18 29 36 43 46 48 51 53 54 55 58 60 61 63 67 72 75 79 81 83 86 89 91 90 87 85 84 82 80 77 75 65 52 30 344 311 290 281 273 266 262 260 258 259 261 264 266 266 264 260 256 252 250 251 251 254 257 258 257 256 256 258 262
207 199 208 258 242 221 253 267 297 17 24 272 213 246 261 272 279 323 9 47 99 100 96 85 70 65 55 46 44 35 33 33 19 13 22 33 40 46 51 54 56 58 58 58 60 62 63 63 66 70 74 78 83 87 89 90 90 88 86 82 78 75 74 73 73 69 66 62 56 48 36 19 354 319 296 281 269 263 261 260 260 261 261 258 254 249 247 249 252 255 256 256 255 254 255 259 262
182 183 170 204 246 248 243 250 264 330 346 284 237 243 261 271 283 340 357 38 93 99 94 83 71 67 57 51 45 34 39 30 16 20 30 37 43 49 54 58 60 61 61 60 62 62 62 62 65 66 67 73 81 85 87 87 85 83 81 79 74 70 70 69 68 66 65 64 61 58 54 49 40 32 21 1 335 306 288 278 269 265 261 253 249 248 249 252 255 257 257 256 255 253 253 255 257
133 134 154 205 233 266 265 260 279 340 306 279 264 266 273 271 303 358 349 29 69 75 82 78 69 66 55 56 48 33 39 25 22 30 36 41 45 50 54 59 63 64 62 61 61 60 60 61 63 64 64 69 73 74 77 78 77 77 75 75 73 69 67 66 64 61 60 59 59 58 55 52 48 45 41 36 31 24 12 355 334 312 293 273 257 253 255 256 256 257 258 257 256 252 252 253 252
95 159 249 266 237 256 266 255 289 359 167 273 327 317 278 280 345 6 7 43 45 38 72 75 68 69 57 54 46 32 34 22 27 31 34 40 45 49 52 56 60 61 59 60 61 60 62 63 64 64 66 70 72 73 75 76 77 79 78 77 75 71 67 64 62 60 58 58 57 55 53 50 47 46 43 40 39 37 34 29 22 13 357 338 311 292 285 279 272 267 263 261 258 253 251 252 251
137 138 201 265 248 275 285 277 311 25 154 276 320 258 273 304 28 23 30 57 49 38 60 63 63 66 52 49 38 30 36 25 24 26 28 38 44 48 51 53 57 58 58 60 62 62 62 63 64 66 69 71 73 74 77 78 80 82 82 81 78 74 68 65 63 60 58 57 56 55 53 49 46 45 42 39 38 36 34 32 30 25 19 13 2 347 330 315 303 294 283 274 268 262 257 254 252
154 149 164 247 255 302 283 292 331 8 108 268 216 226 274 307 61 45 43 69 73 58 61 57 54 61 55 51 39 32 37 29 24 20 21 35 42 44 48 51 55 58 57 58 60 61 61 62 64 67 69 71 74 76 78 81 84 84 84 85 85 81 74 70 65 57 53 51 51 51 49 48 47 46 44 41 39 36 33 31 29 25 22 20 15 10 3 352 337 323 310 295 283 275 269 266 262
234 201 191 229 239 214 227 279 336 349 7 6 125 298 293 264 198 94 71 75 72 57 60 56 41 45 52 52 43 33 37 29 23 18 15 31 38 41 47 54 57 58 57 58 60 61 63 65 67 69 71 72 74 76 80 85 87 86 86 85 83 80 70 61 55 49 46 46 45 45 45 44 44 44 43 42 40 38 36 33 30 26 24 21 18 16 12 6 357 344 332 316 300 286 277 277 276
284 235 206 217 223 216 230 308 9 7 343 343 30 337 293 306 282 177 140 76 63 43 48 58 39 33 41 42 38 26 33 31 24 26 24 32 38 41 49 54 59 60 59 62 66 67 68 70 71 73 73 73 74 75 77 80 79 76 74 71 67 64 59 53 51 49 47 46 44 43 43 41 40 40 38 38 37 36 35 34 33 30 28 26 24 21 17 12 6 358 348 334 321 305 288 280 278
294 248 205 210 205 192 204 168 103 182 252 294 37 226 268 315 316 195 149 95 75 54 46 55 43 38 41 37 34 27 31 28 26 31 32 38 38 39 46 52 58 62 64 69 72 72 71 72 73 74 74 74 74 75 74 74 74 72 72 71 68 65 61 57 58 59 56 53 49 45 43 40 37 35 33 31 30 29 30 30 29 28 27 27 25 22 20 17 12 6 359 351 341 329 308 289 283
249 248 151 159 169 172 179 155 154 218 254 319 1 132 261 287 284 208 130 110 86 75 62 56 51 51 48 35 30 37 36 30 33 33 31 39 41 40 48 56 61 66 70 74 74 74 74 74 75 75 75 74 74 74 74 73 74 75 74 73 71 69 66 64 63 63 62 60 57 52 49 46 43 40 36 33 30 27 25 25 23 22 22 22 19 19 19 14 10 5 359 355 349 344 334 312 298
243 208 116 126 145 149 135 121 124 353 31 314 303 352 270 264 272 36 116 138 204 181 174 166 133 117 92 67 41 37 37 38 45 47 40 42 46 47 55 64 68 71 73 76 77 77 77 77 77 77 75 75 74 74 74 74 75 75 74 73 71 69 67 66 64 62 60 58 56 53 51 49 47 44 42 39 37 34 31 28 24 21 19 16 13 12 10 6 5 1 357 354 349 346 345 335 318
206 130 96 72 73 82 77 98 107 40 59 248 247 194 217 271 279 205 147 225 229 189 186 196 181 185 180 141 84 60 48 44 47 53 53 53 56 58 66 73 74 76 77 80 80 80 79 78 78 77 75 75 74 74 74 73 72 72 71 71 69 67 65 64 61 57 54 53 52 50 47 46 44 42 41 39 37 36 35 33 31 28 24 18 13 7 2 358 356 354 351 348 345 342 339 339 333
139 102 68 42 32 44 43 63 87 45 274 244 233 199 189 266 283 219 183 208 192 163 170 192 190 194 199 196 163 112 84 66 53 53 58 65 71 73 76 78 78 80 82 83 83 82 82 80 80 79 76 75 74 73 73 71 70 69 69 68 67 65 62 60 58 55 51 50 48 46 45 44 42 39 38 36 34 32 31 31 31 31 29 26 21 15 9 2 356 349 344 339 338 338 336 334 331
105 86 73 56 343 15 25 359 44 90 252 259 262 218 182 228 263 236 215 220 184 175 180 179 180 187 191 194 186 160 127 95 69 57 61 67 73 75 78 79 81 83 84 84 84 85 85 84 84 82 78 77 76 75 74 73 71 70 69 68 66 64 61 59 57 54 50 48 46 44 43 41 40 37 34 32 31 28 27 26 26 26 25 25 24 21 17 12 6 359 353 347 341 338 335 333 330
86 98 92 89 324 357 358 312 337 227 251 263 283 203 195 237 244 232 249 276 267 249 208 176 174 178 180 188 186 164 129 100 84 73 64 67 73 77 82 83 84 85 86 87 88 89 89 87 85 83 81 79 79 78 77 75 73 71 69 67 65 63 60 57 54 51 48 45 43 41 39 38 36 35 32 30 27 25 23 22 21 20 19 18 17 16 15 13 10 8 4 0 355 350 343 337 331
142 149 132 128 141 90 275 272 268 268 270 271 276 182 250 273 265 220 258 283 285 270 218 172 167 170 173 177 168 144 121 111 106 97 85 90 99 98 97 95 92 92 92 93 93 93 91 88 86 85 84 82 80 79 77 76 73 71 68 67 64 61 58 55 52 48 44 42 39 37 35 33 32 30 28 26 23 21 20 19 17 15 14 13 10 8 7 6 5 5 4 3 0 357 352 345 337
176 159 135 145 156 167 221 224 210 260 286 293 287 215 203 229 245 237 252 285 320 326 144 143 148 157 155 147 143 146 142 140 143 137 143 139 127 120 112 104 100 98 98 98 97 96 94 92 90 88 87 84 80 79 77 75 74 71 68 66 63 60 56 53 49 45 41 37 34 33 32 29 27 24 21 20 17 15 14 13 12 11 9 8 5 3 1 359 358 357 357 356 356 354 352 349 345
204 128 110 162 182 162 201 205 174 189 300 290 225 222 220 187 191 302 318 14 25 44 103 128 141 146 140 145 159 165 167 170 172 168 177 163 143 132 121 112 107 104 102 102 101 100 99 96 95 92 89 86 81 78 76 75 73 70 67 65 61 56 52 47 44 39 36 32 28 27 25 23 21 17 14 13 11 9 8 6 5 5 4 2 1 360 357 355 353 352 351 350 348 346 345 344 343
161 131 173 212 174 125 112 272 69 84 270 269 194 237 285 321 54 345 28 51 55 75 129 146 157 157 155 171 182 183 189 186 182 182 183 169 153 143 130 120 115 111 108 107 105 104 102 101 98 96 92 88 83 80 78 76 74 70 66 63 57 51 45 41 37 33 29 26 23 20 17 15 13 10 7 6 4 3 1 360 359 358 358 357 355 354 353 351 349 347 346 345 344 341 338 337 336
126 178 211 187 111 88 97 247 344 36 244 272 211 215 256 252 252 336 21 175 187 187 183 173 178 176 174 187 194 198 197 187 182 186 185 175 163 153 142 131 122 117 112 109 107 105 103 101 99 97 94 90 87 83 80 76 73 70 64 58 50 43 37 33 30 25 21 17 15 12 9 7 6 3 0 359 358 357 356 355 353 352 351 350 349 348 347 346 344 342 341 339 339 337 333 331 330
126 187 193 116 134 153 94 166 232 247 243 281 289 259 241 210 212 211 212 212 200 196 196 192 193 189 189 196 200 205 197 179 180 187 190 185 176 165 154 145 134 126 118 111 109 106 104 101 99 97 94 91 89 85 81 76 71 68 61 53 43 36 30 25 21 17 13 10 8 6 3 1 360 357 354 354 353 351 351 349 348 347 346 345 345 344 343 342 340 339 338 336 335 334 330 327 326
71 107 71 56 155 166 149 159 171 186 225 265 295 304 273 230 204 186 205 205 187 185 193 197 198 194 196 198 196 199 189 179 186 188 191 188 181 174 163 154 146 137 129 120 116 111 108 104 100 99 98 98 95 89 85 80 76 69 58 47 36 28 23 17 13 8 5 4 2 0 357 355 353 351 349 349 347 346 344 342 340 339 338 337 338 338 339 339 338 338 336 334 333 332 329 325 323
135 149 181 230 132 134 199 214 134 141 179 215 268 284 266 251 197 188 217 208 181 183 186 190 198 199 203 204 198 193 183 188 195 188 189 189 184 179 170 162 153 145 140 133 126 119 114 111 111 111 110 107 101 95 92 86 78 66 49 37 26 19 14 8 3 359 357 356 355 354 352 349 347 345 344 343 341 340 339 336 334 332 331 329 329 329 330 332 333 333 333 333 331 330 325 322 320
164 182 196 186 164 131 197 250 208 140 172 181 209 261 265 260 206 207 236 207 182 183 180 182 197 201 204 208 198 189 189 196 198 190 190 191 188 185 178 171 164 159 155 150 147 146 142 137 134 130 123 117 111 107 102 91 72 50 33 24 16 10 4 358 355 353 351 350 349 348 346 344 342 341 340 340 339 337 336 334 332 330 329 327 326 325 325 326 327 327 327 327 327 326 323 320 317